Other Surface Observations
Issued by NWS

Current Version | Previous Version | Text Only | Print | Product List | Glossary On
Versions: 1 2 3 4 5 6 7 8 9 10 11 12 13 14 15 16 17 18 19 20 21 22 23 24 25 26 27 28 29 30 31 32 33 34 35 36 37 38 39 40 41 42 43 44 45 46 47 48 49 50
283
SXUS52 KTAE 191418
OSOTAE
OSOTAE
North Florida/South Alabama/Southwest Georgia Weather Roundup
National Weather Service Tallahassee Florida
900 AM EST SUN NOV 19 2017

Note: "fair" indicates few or no clouds below 12,000 feet with no
significant weather and/or obstructions to visibility.

!FLZ017-115-028-034-025-191500
...North Florida...

CITY           SKY/WX    TMP DP  RH WIND       PRES   REMARKS
TALLAHASSEE    PTSUNNY   58  48  69 N17G25    29.99R
APALACHICOLA   MOSUNNY   60  52  74 N16G25    29.97R
PERRY          PTSUNNY   62  56  79 N15       29.96R
CROSS CITY     CLOUDY    61  60  97 NW7       29.98R
JACKSONVILLE   CLOUDY    68  65  90 NW10      29.89R
$$

!FLZ112-006-005-002-011-191500
...Florida Panhandle...

CITY           SKY/WX    TMP DP  RH WIND       PRES   REMARKS
MARIANNA       SUNNY     55  43  63 N16       30.03R
BONIFAY        NOT AVBL
PANAMA CITY NW FAIR      54  43  66 NW15G22   30.03R
TYNDALL AFB    PTSUNNY   55  45  69 N16G24    30.02R
TYND DRONE APT PTSUNNY   55  47  75 N15       30.02R
DE FUNIAK SPR  FAIR      50  39  67 N12G22    30.07R
EGLIN AFB      MOSUNNY   52  39  62 N20G28    30.06R
DESTIN         SUNNY     54  40  59 N20G25    30.07R
HURLBURT       SUNNY     52  41  66 N21G29    30.06R
CRESTVIEW      SUNNY     51  38  60 N9G20     30.09R
PENSACOLA      SUNNY     52  39  61 N20G26    30.10R
$$

!ALZ063-066-191500
...South Alabama...

CITY           SKY/WX    TMP DP  RH WIND       PRES   REMARKS
DOTHAN         SUNNY     53  42  66 N12G20    30.07R
OZARK CAIRNS   SUNNY     51  40  65 N14       30.05R
FT RUCKER HELI   N/A    N/A N/A N/A MISG        N/A
RUCKER HELI 3    N/A     50  40  67 N10       30.06R
RUCKER HELI 2    N/A    N/A N/A N/A SW3         N/A
FLORALA APT    SUNNY     50  38  63 N10G18    30.10R
ANDALUSIA      SUNNY     52  38  58 N15G22    30.09R
TROY           SUNNY     50  39  66 NW12      30.09R
EUFALA         FAIR      52  38  58 VRB7      30.05R
MOBILE         MOSUNNY   49  37  63 N16G29    30.16R WCI  43
$$

!GAZ120>161-191500
...Southwest and South Central Georgia...

CITY           SKY/WX    TMP DP  RH WIND       PRES   REMARKS
THOMASVILLE    FAIR      55  45  67 N16G22    30.01R
BAINBRIDGE     PTSUNNY   55  46  71 N15       30.03R
MOODY AFB      MOSUNNY   57  44  61 NW18G24   29.96R
VALDOSTA       MOSUNNY   58  48  69 N12G20    29.97R
MOULTRIE       MOSUNNY   54  45  71 NW12G20   30.01R
BLAKELY        SUNNY     54  41  62 N9G16     30.04R
ALBANY         MOSUNNY   54  43  66 NW8       30.04R
TIFTON         FAIR      54  44  70 NW20      29.99R
FITZGERALD     FAIR      53  44  71 NW13      30.01R
CORDELE        FAIR      55  41  59 N12       30.02R
AMERICUS       FAIR      50  32  50 N16G23    30.03R WCI  44
HOMERVILLE     CLOUDY    55  48  76 NW14G20   29.96R
$$

!GMZ750-755-770-775-191500
...Coastal and Buoy Obs...

STATION/POSITION TIME  TEMP    WIND        PRES    VSBY  WAVE
                       AIR SEA DIR/SP/G                  HT/PER
                 (UTC) (F)     (DEG/KT/KT) (MB)    (MI)  (FT/S)
KEATON BEACH     1400   62     340/  8/ 11 1013.8R
CEDAR KEY        1400   67     300/  2/  3 1013.4R
C TOWER          1400   59     360/ 20/ 23 1015.3R
APALACHICOLA BUO 1350   70 76  350/ 19/ 23 1013.5R         4/ 5
PANAMA CITY BUOY 1350   65 77  360/ 21/ 27 1015.1R         7/ 6
MOBILE BUOY      1400   60 78  360/ 23/ 27 1019.5
ORANGE BCH AL BU NOT AVBL
$$




USA.gov is the U.S. government's official web portal to all federal, state and local government web resources and services.